EDT,Max TemperatureF,Mean TemperatureF,Min TemperatureF,Max Dew PointF,MeanDew PointF,Min DewpointF,Max Humidity, Mean Humidity, Min Humidity, Max Sea Level PressureIn, Mean Sea Level PressureIn, Min Sea Level PressureIn, Max VisibilityMiles, Mean VisibilityMiles, Min VisibilityMiles, Max Wind SpeedMPH, Mean Wind SpeedMPH, Max Gust SpeedMPH,PrecipitationIn, CloudCover, Events, WindDirDegrees
2013-10-1,73,60,46,58,52,46,97,83,55,30.05,30.00,29.94,10,10,10,9,3,18,0.00,3,,300
2013-10-2,75,62,50,62,55,49,97,82,57,30.06,29.97,29.93,10,10,8,18,4,31,0.00,4,,281
2013-10-3,68,54,41,53,46,40,100,87,47,30.17,30.11,30.06,10,7,0,6,1,,0.00,3,Fog,91
2013-10-4,62,58,54,59,55,49,97,92,80,30.07,30.05,30.03,10,9,1,10,6,,0.48,8,Rain-Thunderstorm,100
2013-10-5,63,60,57,60,58,55,97,92,86,30.11,30.09,30.07,10,8,2,12,3,,0.01,8,Rain,126
2013-10-6,64,59,54,60,56,53,97,93,84,30.08,30.02,29.91,10,9,2,14,8,,0.40,7,Rain,117
2013-10-7,73,60,48,62,56,46,100,91,66,29.97,29.79,29.67,10,7,2,29,11,48,0.82,6,Rain,254
2013-10-8,62,50,39,47,42,39,97,75,47,30.39,30.26,30.01,10,10,5,10,6,,0.00,1,,280
2013-10-9,64,50,37,42,38,35,96,70,34,30.47,30.40,30.34,10,10,10,12,4,,0.00,0,,116
2013-10-10,66,52,39,45,41,36,89,70,40,30.34,30.27,30.19,10,10,10,8,3,,0.00,0,,116
2013-10-11,66,56,43,50,45,42,97,76,43,30.18,30.15,30.12,10,10,10,6,2,,0.00,0,,128
2013-10-12,72,54,36,51,45,35,97,72,44,30.31,30.23,30.17,10,10,10,16,5,22,0.00,0,,122
2013-10-13,69,57,45,53,49,44,97,73,57,30.38,30.32,30.27,10,10,10,16,7,23,0.00,4,,122
2013-10-14,59,57,55,56,54,49,100,90,69,30.34,30.31,30.28,10,7,2,8,5,,0.02,8,Rain,270
2013-10-15,68,57,48,55,52,49,100,89,63,30.30,30.22,30.06,10,6,0,8,1,,0.00,6,Fog,89
2013-10-16,64,60,55,56,52,42,93,79,57,30.06,29.94,29.82,10,8,2,13,7,,0.21,6,Rain,116
2013-10-17,64,54,46,56,50,45,100,83,52,29.90,29.81,29.68,10,8,2,9,5,,0.77,5,Rain,325
2013-10-18,59,50,41,52,45,34,97,79,39,29.94,29.81,29.66,10,10,6,18,8,31,0.06,5,Rain,262
2013-10-19,63,52,41,48,43,36,93,77,38,29.94,29.82,29.69,10,9,3,16,6,25,0.20,6,Rain,139
2013-10-20,55,47,41,44,39,35,86,71,50,30.02,29.88,29.72,10,10,10,21,11,26,0.00,5,Rain,269
2013-10-21,64,54,45,41,39,36,82,58,35,30.06,29.98,29.84,10,10,10,12,6,18,0.00,3,,137
2013-10-22,57,48,39,45,37,28,89,67,44,29.85,29.81,29.75,10,10,10,20,9,29,0.02,6,Rain,240
2013-10-23,48,40,33,39,34,31,97,82,56,29.82,29.76,29.67,10,10,5,13,4,20,0.03,6,Rain,296
2013-10-24,46,40,34,37,34,30,100,88,56,29.96,29.84,29.77,10,9,5,17,5,28,0.49,8,Rain,289
2013-10-25,46,41,37,38,35,31,97,84,58,30.17,30.10,29.98,10,10,10,17,7,23,0.02,7,Rain,292
2013-10-26,46,42,37,36,32,27,96,68,50,30.15,29.96,29.84,10,10,10,15,6,24,0.01,8,Rain,196
2013-10-27,46,42,39,38,36,35,93,79,68,30.08,29.93,29.82,10,10,5,22,8,29,0.04,7,Rain,266
2013-10-28,52,39,27,37,30,20,89,66,42,30.41,30.21,30.07,10,10,10,21,6,26,0.00,4,,344
2013-10-29,44,32,21,24,21,15,92,66,35,30.51,30.44,30.35,10,10,10,7,1,,0.00,0,,126
2013-10-30,51,42,33,38,33,26,93,79,59,30.33,30.27,30.21,10,10,8,8,2,,0.03,7,Rain-Snow,103
2013-10-31,61,47,37,56,47,35,93,90,82,30.18,29.91,29.56,10,6,2,10,7,,0.70,6,Rain,113